TimePDT,TemperatureF,Dew PointF,Humidity,Sea Level PressureIn,VisibilityMPH,Wind Direction,Wind SpeedMPH,Gust SpeedMPH,PrecipitationIn,Events,Conditions,WindDirDegrees,DateUTC
12:52 AM,52.0,46.9,83,29.99,-9999.0,WSW,6.9,-,N/A,,Unknown,250,2013-04-05 07:52:00
1:52 AM,50.0,45.0,83,29.99,-9999.0,WSW,4.6,-,N/A,,Unknown,250,2013-04-05 08:52:00
2:52 AM,48.9,45.0,86,29.99,-9999.0,WSW,5.8,-,N/A,,Unknown,250,2013-04-05 09:52:00
3:52 AM,50.0,45.0,83,29.97,-9999.0,West,5.8,-,N/A,,Unknown,260,2013-04-05 10:52:00
4:52 AM,48.0,45.0,89,29.96,-9999.0,West,6.9,-,N/A,,Unknown,270,2013-04-05 11:52:00
5:52 AM,46.9,44.1,90,29.96,-9999.0,Calm,Calm,-,N/A,,Unknown,0,2013-04-05 12:52:00
6:52 AM,46.0,44.1,93,29.99,-9999.0,Calm,Calm,-,N/A,,Unknown,0,2013-04-05 13:52:00
7:52 AM,46.9,46.0,97,30.00,-9999.0,Calm,Calm,-,N/A,,Unknown,0,2013-04-05 14:52:00
8:52 AM,50.0,48.0,93,30.01,-9999.0,South,8.1,-,N/A,,Unknown,180,2013-04-05 15:52:00
9:52 AM,55.0,48.0,77,30.01,-9999.0,Calm,Calm,-,N/A,,Unknown,0,2013-04-05 16:52:00
10:52 AM,62.1,46.9,58,30.00,-9999.0,SW,10.4,-,N/A,,Unknown,220,2013-04-05 17:52:00
11:52 AM,64.0,46.0,52,29.99,-9999.0,SSW,16.1,21.9,N/A,,Unknown,210,2013-04-05 18:52:00
12:52 PM,66.0,44.1,45,29.97,-9999.0,WSW,10.4,19.6,N/A,,Unknown,250,2013-04-05 19:52:00
1:52 PM,66.9,45.0,45,29.95,-9999.0,SW,15.0,18.4,N/A,,Unknown,220,2013-04-05 20:52:00
2:52 PM,68.0,45.0,43,29.94,-9999.0,West,11.5,18.4,N/A,,Unknown,270,2013-04-05 21:52:00
3:52 PM,68.0,44.1,42,29.92,-9999.0,SW,13.8,21.9,N/A,,Unknown,230,2013-04-05 22:52:00
4:52 PM,64.9,46.0,50,29.92,-9999.0,WSW,17.3,-,N/A,,Unknown,250,2013-04-05 23:52:00
5:52 PM,63.0,46.9,56,29.94,-9999.0,West,17.3,-,N/A,,Unknown,260,2013-04-06 00:52:00
6:52 PM,57.9,48.9,72,29.94,-9999.0,SW,10.4,-,N/A,,Unknown,230,2013-04-06 01:52:00
7:52 PM,54.0,48.9,83,29.96,-9999.0,WSW,11.5,-,N/A,,Unknown,250,2013-04-06 02:52:00
8:52 PM,52.0,48.9,89,29.98,-9999.0,WSW,10.4,-,N/A,,Unknown,250,2013-04-06 03:52:00
9:52 PM,48.9,46.0,90,29.99,-9999.0,Calm,Calm,-,N/A,,Unknown,0,2013-04-06 04:52:00
10:52 PM,50.0,46.9,89,29.99,-9999.0,Calm,Calm,-,N/A,,Unknown,0,2013-04-06 05:52:00
11:52 PM,50.0,48.0,93,29.97,-9999.0,SSW,6.9,-,N/A,,Unknown,200,2013-04-06 06:52:00